Location: Hepcat Sky Observatory
(29.9800°N, 95.6500°W)
Time: 23:53:51
(UTC-05:00)

Daily predictions for brighter satellites

Satellite Brightness Start Highest point End
(mag) Time Altitude Azimuth Time Altitude Azimuth Time Altitude Azimuth
CENTAUR R/B 3.1 19:21:43 10° S 19:26:51 33° ESE 19:32:23 10° NE
Gbstr 26 Del rocket 3.1 19:24:49 10° SSW 19:28:46 60° SE 19:33:27 10° NE
DMSP B5D1-3 4.5 19:26:43 10° NNE 19:31:49 76° ESE 19:36:55 10° S
Cosmos 1707 3.8 19:28:11 10° NNW 19:31:56 51° W 19:35:40 10° S
Cosmos 1603 3.8 19:26:19 10° S 19:31:58 65° ESE 19:37:39 10° NNE
ISS -2.3 19:29:08 10° WSW 19:32:17 46° NW 19:35:25 10° NNE
Cosmos 1953 2.8 19:28:43 10° SSE 19:32:25 38° E 19:36:07 10° NNE
Helios 1B rocket 3.6 19:30:06 10° NE 19:33:17 21° E 19:36:27 10° SSE
Delta 168 3.6 19:30:28 10° WSW 19:34:05 46° S 19:39:13 10° ESE
COSMO-SKYMED 1 3.3 19:37:52 10° N 19:42:07 57° WNW 19:46:22 10° SSW
Meteor 1-24 Rocket 3.8 19:38:43 10° N 19:44:14 81° W 19:49:34 10° S
Cosmos 1470 4.1 19:41:41 10° SE 19:44:24 18° E 19:47:07 10° NE
BREEZE-M TANK 3.2 19:36:19 10° NW 19:45:36 62° NNE 19:48:39 11° ESE
In-Cosmos 22 4.4 19:42:29 10° N 19:48:05 51° E 19:53:36 10° SSE
ATLAS CENTAUR R/B 3.6 19:46:03 10° NW 19:49:21 25° WSW 19:52:28 10° SSW
ASC 2 Rocket 4.5 19:45:05 10° WSW 19:49:33 31° SSW 19:53:15 10° SE
Cosmos 1674 4.4 19:48:36 10° NE 19:50:48 15° ENE 19:51:28 14° E
Spot 2 Rocket 4.3 19:46:58 10° SE 19:51:18 30° ENE 19:55:38 10° NNE
Cosmos 1076 Rocket 3.4 19:49:28 10° N 19:53:48 73° E 19:58:09 10° S
ASTRO E2 2.7 19:49:53 10° W 19:53:57 86° S 19:57:04 16° ESE
Cosmos 1048 Rocket 4.0 19:49:27 10° S 19:54:40 60° ESE 19:59:51 10° NNE
Cosmos-2242 2.9 19:53:10 10° S 19:57:29 76° E 20:01:53 10° N
ATLAS 5 CENTAUR R/B 4.1 19:54:07 10° WSW 19:58:00 25° NW 20:02:06 10° N
Cosmos 1766 Rocket 3.4 19:55:03 10° N 19:59:23 67° E 20:03:40 10° SSE
Cosmos 1269 Rocket 4.0 19:54:57 10° SSW 20:00:13 83° ESE 20:05:31 10° NNE
SJ-6B 2.8 19:56:52 10° SSE 20:00:47 67° ENE 20:04:48 10° N
HJ-1C 4.2 19:58:45 11° SE 20:01:31 29° ENE 20:04:30 10° NNE
FREGAT/IRIS 2.8 19:59:48 10° SSE 20:02:48 50° ENE 20:05:49 10° N
Cosmos 1544 3.0 20:01:56 10° S 20:05:39 74° E 20:09:22 10° N
Cosmos 1174 4.1 20:01:02 10° SSW 20:06:20 68° ESE 20:10:31 10° NNE
Milstar 3 4.2 19:57:02 10° W 20:06:24 80° S 20:20:49 19° ESE
Cosmos 158 Rocket 4.1 20:02:01 10° S 20:06:36 41° ESE 20:11:10 10° NNE
Cosmos 1484 Rocket 4.1 20:03:48 10° S 20:07:25 42° W 20:11:08 10° NNW
SAR-Lupe-4 3.7 20:05:14 10° S 20:08:47 75° WSW 20:12:21 10° NNW
Cosmos 1346 3.5 20:06:02 10° N 20:08:49 37° E 20:09:55 26° SE
FUSE 4.5 20:06:20 10° WSW 20:11:30 49° S 20:14:47 21° ESE
METEOR-M 4.1 20:10:40 10° SSE 20:15:57 65° ENE 20:21:15 10° N
Cosmos 1758 4.5 20:13:06 10° SSW 20:17:01 47° W 20:20:59 10° N
USA 215 3.3 20:12:53 10° NE 20:19:26 84° NW 20:25:58 10° SW
OAO 3 Rocket 3.5 20:17:54 10° WNW 20:22:34 55° NNE 20:24:38 31° ENE
Cosmos 1842 Rocket 3.4 20:22:04 10° S 20:26:22 74° E 20:30:42 10° N
SeaSat 1 3.8 20:33:02 21° SSE 20:33:02 21° SSE 20:35:12 10° SSE
Cosmos 1500 Rocket 3.7 20:27:08 10° N 20:31:27 50° E 20:32:52 36° SE
Helios 1A 2.8 20:30:32 15° SSE 20:33:56 76° ENE 20:38:09 10° N
FENGYUN 3A 3.9 20:32:29 30° SE 20:34:39 46° ENE 20:39:46 10° N
Spot 1 4.3 20:30:22 10° S 20:35:09 77° WSW 20:39:40 10° NNW
Meteor 1-21 Rocket 4.5 20:35:49 10° NNW 20:41:18 67° W 20:46:47 10° S
AVUM R/B 3.6 20:38:48 10° SSW 20:41:26 54° W 20:41:26 54° W
Meteor 1-29 4.2 20:42:37 10° N 20:45:56 41° WNW 20:49:13 10° SSW
GPS 2-04 Rocket1 3.8 20:46:43 10° WNW 20:49:38 31° N 20:49:38 31° N
Atlas Centaur 2 4.3 20:45:56 10° W 20:53:14 32° SSW 20:58:19 17° SSE
Resurs 1-3 3.8 20:52:48 25° S 20:55:19 67° W 20:59:41 10° NNW
SEDSat Delta rocket 4.0 20:51:28 10° W 20:58:08 80° SSW 20:59:50 53° ESE
ALOS 2.1 20:58:47 71° SSE 20:59:18 90° ESE 21:04:00 10° NNW
ASTEX 1 3.6 20:55:22 10° N 21:00:14 67° W 21:05:03 10° SSW
Resurs 01 Rocket 2.9 20:59:28 10° SSW 21:03:38 39° W 21:07:48 10° NNW
Cosmos 2251 Rocket 3.4 20:59:03 10° SSW 21:04:16 86° WNW 21:09:32 10° NNE
Cosmos 1627 Rocket 4.4 20:58:08 10° N 21:04:17 61° E 21:04:23 61° E
Cosmos 1943 Rocket 3.9 21:00:52 10° N 21:02:44 18° NNE 21:02:44 18° NNE
Cosmos 1943 4.5 21:03:23 10° SW 21:08:38 40° WNW 21:13:54 10° N
Meteosat 1 Rocket2 3.5 21:02:19 10° W 21:09:22 75° S 21:09:24 75° S
Mugunghwa Rocket 4.3 21:03:29 10° WSW 21:10:10 56° SSE 21:10:52 54° SE
Cosmos 2369 Rocket 2.2 21:07:42 10° NNW 21:12:53 71° NNE 21:12:53 71° NNE
BREEZE-M DEB (TANK) 4.0 20:52:08 10° NW 21:16:04 82° SW 21:17:47 55° SSE
CENTAUR R/B 4.1 21:12:02 10° WSW 21:17:19 32° NW 21:23:08 10° N
Cosmos 839 Rocket 4.1 21:13:28 10° NNW 21:20:01 63° NE 21:20:01 63° NE
Cosmos 2279 Rocket 4.4 21:32:30 52° N 21:32:30 52° N 21:37:05 10° N
